#timestamp,LO_Frequency,Hit,StdDev 
1530716415.8,286047006.6,N
1530716435.7,286047007.0,N
1530716455.5,286047006.3,N
1530716475.3,286047004.9,N
1530716495.2,286047003.1,N
1530716515.0,286047002.3,N
1530716515.9,286047002.3,N
1530716535.7,286047002.8,N
1530716555.6,286047002.6,N
1530716575.4,286047000.1,N
1530716595.3,286047001.0,N
1530716615.1,286047002.7,N
1530716635.8,286047000.4,N
1530716655.7,286047001.9,N
1530716675.5,286047003.4,N
1530716695.3,286047004.1,N
1530716715.2,286047003.4,N
1530716735.0,286047004.8,N
1530716735.9,286047004.8,N
1530716755.8,286047005.3,N
1530716775.6,286047004.6,N
1530716795.4,286047005.3,N
1530716815.3,286047005.9,N
1530716835.1,286047004.9,N
1530716855.9,286047007.1,Y
1530716875.7,286047001.7,P
1530716895.5,286047001.3,N
1530716915.4,286047004.4,P
1530716935.2,286047001.5,N
1530716955.1,286047002.1,N
1530716956.0,286047002.1,N
1530716975.8,286047002.0,N
1530716995.6,286047002.2,N
1530717015.5,286047001.9,N
1530717035.3,286047001.5,N
1530717055.2,286047001.6,N
1530717075.9,286047001.9,N
1530717095.7,286047001.6,N
1530717115.6,286047004.0,Y
1530717135.4,286047001.5,P
1530717155.3,286047003.6,P
1530717175.1,286047003.1,P
1530717176.0,286047003.1,Y
1530717195.8,286047002.7,P
1530717215.7,286047002.3,P
1530717235.5,286047001.6,P
1530717255.3,286047001.8,Y
1530717275.2,286047000.1,P
1530717295.0,286047000.2,N
1530717295.9,286047000.2,N
1530717315.8,286046999.9,N
1530717335.6,286047001.0,N
1530717355.4,286047000.8,N
1530717375.3,286047000.1,N
1530717395.1,286047000.0,N
1530717415.9,286047000.2,N
1530717435.7,286047000.4,N
1530717455.5,286047000.5,N
1530717475.4,286047000.1,N
1530717495.2,286047000.0,N
1530717515.0,286047001.1,N
1530717515.9,286047001.1,N
1530717535.8,286047001.0,N
1530717555.6,286046998.6,N
1530717575.5,286046999.4,N
1530717595.3,286046998.2,N
1530717615.1,286046998.6,N
1530717635.9,286046999.6,N
1530717655.7,286046995.2,Y
1530717675.5,286046995.1,P
1530717695.4,286046996.8,N
1530717715.2,286046998.7,N
1530717735.1,286046998.3,N
1530717736.0,286046998.3,N
1530717755.8,286046997.1,N
1530717775.6,286046997.9,N
1530717795.5,286046995.1,Y
1530717815.3,286047000.0,P
1530717835.1,286047000.1,N
1530717855.9,286047000.5,N
1530717875.7,286046998.3,N
1530717895.6,286046998.3,N
1530717915.4,286046998.4,N
1530717935.2,286047000.5,N
1530717955.1,286047000.7,N
1530717956.0,286047000.7,N
1530717975.8,286047002.7,N
1530717995.6,286046999.9,N
1530718015.5,286046998.9,N
1530718035.3,286046999.2,N
1530718055.2,286046998.9,N
1530718075.9,286046999.2,N
1530718095.7,286046997.7,N
1530718115.6,286046994.9,Y
1530718135.4,286046995.7,P
1530718155.2,286046993.5,P
1530718175.1,286046991.8,P
1530718176.0,286046991.8,N
1530718195.8,286046991.8,N
1530718215.7,286046994.7,N
1530718235.5,286046992.2,N
1530718255.3,286046993.1,N
1530718275.2,286046988.8,Y
1530718295.0,286046995.6,P
1530718295.9,286046995.6,P
1530718315.8,286046995.3,P
1530718335.6,286046996.2,Y
1530718355.4,286047001.2,P
1530718375.3,286047000.7,N
1530718395.1,286047000.3,N
1530718415.8,286047002.3,N
1530718435.7,286047002.4,N
1530718455.5,286047001.7,N
1530718475.4,286047002.1,N
1530718495.2,286047004.0,N
1530718515.0,286047004.3,N
1530718515.9,286047004.3,N
1530718535.8,286047001.4,N
1530718555.6,286047001.8,N
1530718575.4,286047001.4,N
1530718595.3,286047004.0,N
1530718615.1,286047001.4,N
1530718635.9,286047003.8,N
1530718655.7,286047003.9,N
1530718675.5,286047004.2,N
1530718695.4,286047003.8,N
1530718715.2,286047003.6,N
1530718735.0,286047003.4,N
1530718735.9,286047003.4,N
1530718755.8,286047003.0,N
1530718775.7,286047003.8,N
1530718795.5,286047004.1,N
1530718815.4,286047003.7,N
1530718835.2,286047003.9,N
1530718855.0,286047001.3,N
1530718855.9,286047001.3,N
1530718875.8,286047004.0,N
1530718895.6,286047001.3,N
1530718915.5,286047003.9,Y
1530718935.3,286047001.1,P
1530718955.1,286046998.2,N
1530718975.9,286046998.1,N
1530718995.7,286046999.0,N
1530719015.5,286046996.5,N
1530719035.4,286046997.4,N
1530719055.2,286046997.6,N
1530719075.1,286046995.4,N
1530719076.0,286046995.4,N
1530719095.8,286046995.1,N
1530719115.6,286046998.0,N
1530719135.5,286046997.5,N
1530719155.3,286046995.1,N
1530719175.1,286046997.8,N
1530719195.9,286046997.4,N
1530719215.7,286046997.1,N
1530719235.6,286046997.5,N
1530719255.4,286046994.9,N
1530719275.2,286046997.6,N
1530719295.1,286046997.4,N
1530719296.0,286046997.4,N
1530719315.8,286046999.6,N
1530719335.7,286046999.1,N
1530719355.5,286046998.7,N
1530719375.3,286046998.7,N
1530719395.2,286047001.2,N
1530719415.0,286046996.9,N
1530719415.9,286046996.9,N
1530719435.8,286046999.5,N
1530719455.6,286046996.6,N
1530719475.4,286046996.8,N
1530719495.3,286046997.2,N
1530719515.1,286046996.8,N
1530719535.8,286046999.6,N
1530719555.7,286046999.5,N
1530719575.5,286046996.9,N
1530719595.4,286046996.5,N
1530719615.2,286046999.1,N
1530719635.0,286046998.4,N
1530719635.9,286046998.4,N
1530719655.8,286046998.8,N
1530719675.6,286046999.4,N
1530719695.5,286046996.6,N
1530719715.3,286046999.5,N
1530719735.1,286046997.0,N
1530719755.9,286046998.9,N
1530719775.7,286046998.6,N
1530719795.5,286046998.5,N
1530719815.4,286046998.5,N
1530719835.2,286047001.0,N
1530719855.1,286047000.5,N
1530719856.0,286047000.5,N
1530719875.8,286047001.0,N
1530719895.6,286046998.8,N
1530719915.5,286046998.3,N
1530719935.3,286046999.4,N
1530719955.2,286046999.6,N
1530719975.9,286046998.4,N
1530719995.7,286046999.2,N
